M.P.E.C. 2001-E17 Issued 2001 Mar. 6, 18:17 UT The Minor Planet Electronic Circulars contain information on unusual minor planets and routine data on comets. They are published on behalf of Commission 20 of the International Astronomical Union by the Minor Planet Center, Smithsonian Astrophysical Observatory, Cambridge, MA 02138, U.S.A. Prepared using the Tamkin Foundation Computer Network MPC@CFA.HARVARD.EDU URL http://cfa-www.harvard.edu/iau/mpc.html ISSN 1523-6714 2001 EC Observations: K01E00C* C2001 03 03.24264 10 13 24.73 +14 10 42.5 13.4 704 K01E00C C2001 03 03.25559 10 13 28.95 +14 09 37.8 704 K01E00C C2001 03 03.26853 10 13 33.14 +14 08 33.3 704 K01E00C C2001 03 03.28198 10 13 37.47 +14 07 26.2 704 K01E00C C2001 03 03.29493 10 13 41.61 +14 06 22.0 704 K01E00C C2001 03 04.23210 10 18 34.30 +13 01 51.1 13.4 919 K01E00C C2001 03 04.23462 10 18 34.86 +13 01 42.6 13.4 919 K01E00C C2001 03 04.23873 10 18 35.71 +13 01 28.5 13.4 919 K01E00C C2001 03 04.25207 10 18 38.60 +13 00 43.8 13.2 R 919 K01E00C C2001 03 04.25530 10 18 39.22 +13 00 32.3 13.4 R 919 K01E00C C2001 03 04.25673 10 18 39.55 +13 00 27.7 13.4 R 919 K01E00C C2001 03 04.26378 10 18 39.06 +12 59 51.5 13.4 R 739 K01E00C C2001 03 04.26731 10 18 39.77 +12 59 39.1 13.3 R 739 K01E00C C2001 03 04.26780 10 18 41.91 +12 59 49.9 13.3 R 919 K01E00C C2001 03 04.26827 10 18 41.98 +12 59 48.3 13.4 R 919 K01E00C C2001 03 04.26991 10 18 40.36 +12 59 30.3 13.3 R 739 K01E00C C2001 03 04.30868 10 18 48.60 +12 57 18.2 13.2 R 649 K01E00C C2001 03 04.31565 10 18 50.08 +12 56 54.4 13.4 R 649 K01E00C C2001 03 04.31939 10 18 50.87 +12 56 41.7 13.3 R 649 K01E00C C2001 03 04.33385 10 18 54.68 +12 56 09.8 711 K01E00C C2001 03 04.33654 10 18 55.24 +12 56 00.4 711 K01E00C C2001 03 04.33917 10 18 55.79 +12 55 51.6 711 K01E00C C2001 03 04.41865 10 19 12.97 +12 51 18.5 14.1 704 K01E00C C2001 03 04.43353 10 19 16.18 +12 50 28.7 704 K01E00C C2001 03 04.44839 10 19 19.42 +12 49 39.1 14.9 704 K01E00C C2001 03 04.46286 10 19 22.62 +12 48 51.2 15.0 704 K01E00C C2001 03 04.46651 10 19 23.45 +12 48 39.8 14.2 704 K01E00C C2001 03 04.46664 10 19 23.48 +12 48 38.9 13.9 704 K01E00C C2001 03 04.47793 10 19 25.97 +12 48 01.2 15.2 704 K01E00C C2001 03 04.48099 10 19 26.61 +12 47 51.1 704 K01E00C C2001 03 04.48113 10 19 26.72 +12 47 50.9 14.3 704 K01E00C C2001 03 04.49556 10 19 29.86 +12 47 02.3 14.8 704 K01E00C C2001 03 04.49570 10 19 30.04 +12 47 02.9 704 K01E00C C2001 03 04.51022 10 19 33.38 +12 46 15.5 14.8 704 K01E00C C2001 03 04.66808 10 20 11.22 +12 40 18.3 13.6 R 428 K01E00C C2001 03 04.67933 10 20 13.38 +12 39 43.2 13.7 R 428 K01E00C C2001 03 04.88870 10 21 05.70 +12 27 39.3 13.5 R 165 K01E00C C2001 03 04.88989 10 21 05.88 +12 27 36.4 13.0 R 165 K01E00C C2001 03 04.89515 10 21 06.75 +12 27 21.5 165 K01E00C C2001 03 04.89781 10 21 07.18 +12 27 13.1 165 K01E00C C2001 03 05.10396 10 21 49.44 +12 17 48.2 13.8 V 726 K01E00C C2001 03 05.10743 10 21 50.03 +12 17 39.4 13.7 V 726 K01E00C C2001 03 05.11089 10 21 50.62 +12 17 30.6 13.8 V 726 K01E00C C2001 03 05.11619 10 21 51.51 +12 17 17.1 13.7 V 726 K01E00C C2001 03 05.13698 10 21 55.44 +12 16 35.7 13.7 V 739 K01E00C C2001 03 05.13891 10 21 55.75 +12 16 30.9 13.7 V 739 K01E00C C2001 03 05.14056 10 21 56.02 +12 16 26.7 13.7 V 739 K01E00C C2001 03 05.24034 10 22 12.67 +12 12 25.7 14.0 704 K01E00C C2001 03 05.25440 10 22 14.77 +12 11 51.0 15.0 704 K01E00C C2001 03 05.26816 10 22 16.78 +12 11 16.9 14.3 704 K01E00C C2001 03 05.28182 10 22 18.79 +12 10 42.9 13.5 704 K01E00C C2001 03 05.29518 10 22 20.79 +12 10 10.0 14.7 704 K01E00C C2001 03 05.41543 10 22 47.52 +12 06 53.1 14.1 R 428 K01E00C C2001 03 05.41696 10 22 47.76 +12 06 49.7 14.0 R 428 K01E00C C2001 03 05.41844 10 22 47.96 +12 06 46.3 14.1 R 428 K01E00C C2001 03 05.43103 10 22 49.81 +12 06 17.3 14.1 R 428 K01E00C C2001 03 05.43251 10 22 50.03 +12 06 13.8 14.0 R 428 K01E00C C2001 03 05.53176 10 23 05.53 +12 00 43.0 14.1 V 300 K01E00C C2001 03 05.53286 10 23 05.72 +12 00 40.9 14.1 V 300 K01E00C C2001 03 05.53396 10 23 05.85 +12 00 38.3 14.1 V 300 K01E00C C2001 03 05.53506 10 23 06.00 +12 00 35.6 14.3 V 300 K01E00C C2001 03 05.53615 10 23 06.15 +12 00 33.4 14.3 V 300 K01E00C C2001 03 05.53747 10 23 04.54 +12 02 12.7 13.9 R 428 K01E00C C2001 03 05.53995 10 23 04.88 +12 02 06.8 14.0 R 428 K01E00C C2001 03 05.54126 10 23 05.04 +12 02 03.9 14.1 R 428 K01E00C C2001 03 05.54220 10 23 05.16 +12 02 01.8 14.0 R 428 K01E00C C2001 03 05.54329 10 23 05.31 +12 01 59.2 14.0 R 428 K01E00C C2001 03 05.63493 10 23 17.39 +11 58 28.4 14.1 R 428 K01E00C C2001 03 05.63660 10 23 17.59 +11 58 24.4 14.1 R 428 K01E00C C2001 03 05.64053 10 23 18.13 +11 58 15.4 14.1 R 428 K01E00C C2001 03 05.64125 10 23 18.24 +11 58 13.5 14.1 R 428 K01E00C C2001 03 05.64210 10 23 18.34 +11 58 11.7 14.1 R 428 K01E00C C2001 03 05.68847 10 23 25.97 +11 54 47.5 14.1 V 349 K01E00C C2001 03 05.69566 10 23 26.97 +11 54 31.6 349 K01E00C C2001 03 05.69713 10 23 27.16 +11 54 27.7 349 K01E00C C2001 03 05.69831 10 23 27.32 +11 54 25.3 349 K01E00C C2001 03 05.86481 10 24 00.02 +11 48 23.0 14.0 R 176 K01E00C C2001 03 05.87500 10 24 01.33 +11 48 02.5 13.9 R 176 K01E00C C2001 03 05.87799 10 24 00.99 +11 47 50.6 14.3 V 104 K01E00C C2001 03 05.88056 10 24 01.32 +11 47 45.2 104 K01E00C C2001 03 05.88264 10 24 02.34 +11 47 46.7 176 K01E00C C2001 03 05.88287 10 24 01.59 +11 47 40.3 104 K01E00C C2001 03 05.88519 10 24 01.88 +11 47 35.5 104 K01E00C C2001 03 05.88536 10 24 01.89 +11 47 28.5 14.2 V 611 K01E00C C2001 03 05.88824 10 24 02.26 +11 47 29.3 104 K01E00C C2001 03 05.88831 10 24 03.08 +11 47 34.7 176 K01E00C C2001 03 05.88983 10 24 02.47 +11 47 18.9 611 K01E00C C2001 03 05.89073 10 24 02.61 +11 47 17.6 611 K01E00C C2001 03 05.89228 10 24 02.78 +11 47 14.1 611 K01E00C C2001 03 05.90911 10 24 05.03 +11 46 41.7 14.0 V 151 K01E00C C2001 03 05.91178 10 24 05.36 +11 46 36.2 14.1 V 151 K01E00C C2001 03 05.91368 10 24 05.61 +11 46 32.3 14.1 V 151 K01E00C C2001 03 05.91593 10 24 05.90 +11 46 27.7 14.1 V 151 K01E00C C2001 03 05.91701 10 24 06.67 +11 46 33.5 14.0 R 165 K01E00C C2001 03 05.92063 10 24 07.11 +11 46 26.4 165 K01E00C C2001 03 05.92348 10 24 07.47 +11 46 20.6 165 K01E00C C2001 03 05.93181 10 24 08.49 +11 46 03.5 14.1 R 165 K01E00C C2001 03 06.16039 10 24 44.44 +11 38 12.5 642 K01E00C C2001 03 06.16847 10 24 45.45 +11 37 56.7 642 K01E00C C2001 03 06.17375 10 24 46.14 +11 37 47.4 13.8 V 642 K01E00C C2001 03 06.17779 10 24 46.69 +11 37 39.3 642 K01E00C C2001 03 06.18049 10 24 47.00 +11 37 34.5 642 K01E00C C2001 03 06.26360 10 24 54.73 +11 35 04.8 14.1 R 750 K01E00C C2001 03 06.26828 10 24 55.25 +11 34 56.0 14.2 R 750 K01E00C C2001 03 06.27220 10 24 55.70 +11 34 48.5 14.2 R 750 K01E00C C2001 03 06.28600 10 24 57.28 +11 34 22.1 14.4 R 750 K01E00C C2001 03 06.29167 10 24 57.91 +11 34 11.3 14.3 R 750 K01E00C C2001 03 06.55750 10 25 34.88 +11 27 50.2 14.3 R 428 K01E00C C2001 03 06.55843 10 25 34.97 +11 27 48.5 14.3 R 428 K01E00C C2001 03 06.56022 10 25 35.15 +11 27 45.4 14.3 R 428 Observer details: 104 San Marcello Pistoiese. Observers L. Tesi, A. Boattini, M. Tombelli. Measurers G. Forti, L. Tesi, A. Boattini, M. Tombelli. 0.40-m f/5 reflector + CCD. 151 Eschenberg Observatory, Winterthur. Observer M. Griesser. 0.40-m f/5.8 Hypergraph. 165 Piera Observatory, Barcelona. Observer J. Guarro. 0.40-m f/2 Schmidt + CCD. 176 Observatori Astronomic de Consell. Observers A. Lopez, R. Pacheco. 0.2-m f/3.3 Schmidt-Cassegrain + CCD. 300 Bisei Spaceguard Center--BATTeRS. Observers A. Asami, D. J. Asher, S. Hashimoto, S. Isobe, S. Nakano, Y. Oshima, J. Terazono, T. Urata, M. Yoshikawa. 0.50-m f/2.0 reflector + CCD. 349 Ageo. Observer K. Kadota. 0.18-m f/5.5 reflector + CCD. 428 Reedy Creek. Observer J. Broughton. 0.25-m f/6.3 Schmidt-Cassegrain + CCD. 611 Starkenburg. Observers M. Busch, F. Hormuth. Measurer F. Hormuth. 0.45-m f/4.4 reflector + CCD. 642 Oak Bay, Victoria. Observer C. E. Spratt. 0.20-m f/3.7 Schmidt-Cassegrain + CCD. 649 Powell Observatory, Louisburg. Observers R. Fredrick, J. Wright. Measurer D. Probert. 0.30-m Schmidt-Cassegrain + CCD. 704 Lincoln Laboratory ETS, New Mexico. Observers M. Blythe, F. Shelly, M. Bezpalko, R. Huber, L. Manguso, S. Adams. Measurers J. Stuart, R. Sayer, J. B. Evans, H. Viggh. 1.0-m f/2.15 reflector + CCD. 711 McDonald Observatory. Observer J. G. Ries. 0.76-m reflector + CCD. 726 Brainerd. Observer J. Wentworth. 0.28-m Schmidt-Cassegrain + CCD. 739 Sunflower Observatory, Olathe. Observer L. Robinson. 0.30-m Schmidt-Cassegrain + CCD. 750 Hobbs Observatory, Fall Creek. Observer R. Elliott. 0.3-m f/3.3 reflector + CCD. 919 Desert Beaver Observatory. Observer K. W. Yeung. 0.45-m reflector + CCD. 2001 EC Epoch 2001 Apr. 1.0 TT = JDT 2452000.5 Spahr M 18.40020 (2000.0) P Q n 0.23877055 Peri. 72.51251 +0.32522590 -0.94563632 a 2.5732514 Node 358.50815 +0.86361368 +0.29713299 e 0.7729832 Incl. 0.59549 +0.38522658 +0.13222688 P 4.13 H 18.5 G 0.15 U 7 Residuals in seconds of arc K0133 704 0.4+ 0.4+ K0134 165 0.3+ 1.2+ K0135 349 0.1+ 0.2- K0133 704 0.3+ 0.5+ K0134 165 0.5- 0.6+ K0135 349 0.1+ 0.1+ K0133 704 0.4+ 0.5+ K0134 165 1.0- 0.5- K0135 176 0.2- 0.3+ K0133 704 0.4+ 0.3+ K0135 726 0.3+ 0.2- K0135 176 0.3- 0.6+ K0133 704 0.4+ 0.4+ K0135 726 0.2+ 0.2- K0135 104 0.1- 0.1- K0134 919 0.1- 0.6- K0135 726 0.2+ 0.3- K0135 104 0.1- 0.2- K0134 919 0.2+ 0.5- K0135 726 0.1+ 0.4- K0135 176 0.2+ 0.4+ K0134 919 0.3- 0.6- K0135 739 0.4+ 0.8- K0135 104 0.4- 0.3- K0134 919 0.4+ 0.1+ K0135 739 0.4+ 0.7- K0135 104 0.5- 0.4- K0134 919 0.6- 0.5- K0135 739 0.4+ 0.8- K0135 611 0.2- 0.5+ K0134 919 0.1- 0.2- K0135 704 0.0 0.3+ K0135 104 0.6- 0.3- K0134 739 0.1- 0.7- K0135 704 0.3+ 0.5+ K0135 176 0.5+ 0.0 K0134 739 0.8- 1.0- K0135 704 0.0 0.5+ K0135 611 0.2- 0.1+ K0134 919 0.2+ 0.4- K0135 704 0.2+ 0.3+ K0135 611 0.2+ 0.6+ K0134 919 0.2- 0.4- K0135 704 0.9+ 0.5+ K0135 611 0.3- 0.3+ K0134 739 0.3- 0.9- K0135 428 0.2+ 0.2- K0135 151 0.3+ 0.4- K0134 649 0.6- 0.6- K0135 428 0.3+ 0.0 K0135 151 0.2+ 0.4- K0134 649 0.8- 0.6- K0135 428 0.0 0.0 K0135 151 0.3+ 0.4- K0134 649 0.9- 0.5- K0135 428 0.2- 0.0 K0135 151 0.4+ 0.4- K0134 711 0.1- 0.1+ K0135 428 0.2- 0.1- K0135 165 0.0 0.0 K0134 711 0.1- 0.2- K0135 300 0.3- 0.2- K0135 165 0.2- 0.3+ K0134 711 0.0 0.0 K0135 300 0.2+ 0.2+ K0135 165 0.1- 0.3+ K0134 704 0.1+ 0.2+ K0135 300 0.1- 0.1+ K0135 165 0.2- 0.1+ K0134 704 0.1- 0.1+ K0135 300 0.1- 0.2- K0136 642 0.1+ 0.4+ K0134 704 0.2- 0.1+ K0135 300 0.1- 0.1+ K0136 642 0.3- 0.3- K0134 704 0.1- 0.2+ K0135 428 0.1- 0.1+ K0136 642 0.0 0.3+ K0134 704 0.2+ 0.9+ K0135 428 0.1+ 0.1- K0136 642 0.5+ 0.2- K0134 704 0.2+ 0.5+ K0135 428 0.1- 0.0 K0136 642 0.1+ 0.0 K0134 704 0.3- 0.1+ K0135 428 0.2- 0.1+ K0136 750 0.3+ 0.3+ K0134 704 1.0- 0.1+ K0135 428 0.1- 0.0 K0136 750 0.1+ 0.4+ K0134 704 0.2+ 0.4+ K0135 428 0.1+ 0.3+ K0136 750 0.2+ 0.3+ K0134 704 (1.7- 0.7-) K0135 428 0.3- 0.1+ K0136 750 0.5+ 0.2+ K0134 704 0.5+ 0.4+ K0135 428 0.1- 0.2+ K0136 750 0.3+ 0.2+ K0134 704 0.7+ 0.6+ K0135 428 0.1+ 0.1- K0136 428 0.1- 0.4- K0134 428 0.2- 0.2- K0135 428 0.1- 0.1+ K0136 428 0.1- 0.4- K0134 428 0.0 0.5- K0135 349 0.1- 0.1+ K0136 428 0.0 0.3- K0134 165 0.7+ 0.8+ K0135 349 0.2+ 0.4+ Ephemeris: 2001 EC a,e,i = 2.57, 0.77, 1 q = 0.5842 Date TT R. A. (2000) Decl. Delta r Elong. Phase V 2001 02 20 22 59.46 -03 20.2 0.088 0.903 13.7 165.0 26.2 2001 02 21 23 02.72 -02 32.7 0.075 0.916 13.8 165.1 25.9 2001 02 22 23 07.29 -01 25.8 0.062 0.929 14.4 164.6 25.3 2001 02 23 23 14.18 +00 15.3 0.049 0.942 15.9 163.3 24.1 2001 02 24 23 25.82 +03 06.1 0.037 0.955 19.0 160.3 22.3 2001 02 25 23 49.60 +08 49.5 0.024 0.968 26.2 153.1 19.4 2001 02 26 01 00.74 +23 54.8 0.014 0.981 48.0 131.4 15.0 2001 02 27 06 04.73 +43 41.7 0.010 0.994 111.0 68.4 11.0 2001 02 28 09 03.51 +27 42.9 0.019 1.007 149.1 30.3 11.3 2001 03 01 09 45.49 +20 05.8 0.031 1.020 160.4 19.0 12.0 2001 03 02 10 02.57 +16 33.1 0.044 1.033 164.8 14.5 12.6 2001 03 12 10 32.82 +09 50.1 0.175 1.164 164.7 13.0 15.8 2001 03 22 10 38.91 +08 39.9 0.315 1.291 156.6 17.8 17.5 2001 04 01 10 44.14 +07 55.4 0.465 1.416 148.2 21.8 18.7 2001 04 11 10 50.25 +07 11.9 0.627 1.536 140.0 24.8 19.6 2001 04 21 10 57.40 +06 24.4 0.801 1.653 132.2 26.8 20.3 2001 05 01 11 05.58 +05 31.6 0.986 1.765 124.7 28.0 20.9 2001 05 11 11 14.62 +04 33.6 1.180 1.874 117.4 28.6 21.5 2001 05 21 11 24.34 +03 31.1 1.383 1.978 110.4 28.6 21.9 Timothy B. Spahr (C) Copyright 2001 MPC M.P.E.C. 2001-E17
